100LL.CA
Aviation Fuel Pricing for Canadians
Please upgrade your browser - Tested with IE9, FireFox, Chrome, Safari

Fuel Prices Airport Info Airport List METAR / TAF Kneeboard RSS

Reference Airport: Mayo, YT
N 63 37 00   W 135 52 08

CYMA Mayo, YT
WEATHER
METARCYMA 270800Z 01006KT 20SM BKN050 BKN100 08/M03 A2947 RMK SC5AC2 SLP997 DENSITY ALT 1700FT
TAFTAF CYMA 270539Z 2706/2718 VRB03KT P6SM SCT050 BKN090 TEMPO 2706/2715 P6SM -SHRA FEW025 BKN050 FM271500 03007KT P6SM SCT025 BKN050 OVC090 TEMPO 2715/2718 P6SM -RA BKN020 OVC040 RMK NXT FCST BY 271200Z
REF N 63 37 00  W 135 52 08    1.5N    22E (2013)
UTC-8(7)    Elev 1653    A5028 LO5 HI2 CAP
OPR Govt of Yukon 867-634-2046/2035
Reg
PFA-1 C-2,3,4,5
FLT PLN NOTAM FILE CYMA
FIC Kamloops 866-WXBRIEF (Toll free within Canada) or 866-541-4101 (Toll free within Canada & USA)
CARS867-996-2334 Fax 867-996-2134
WXMETAR H24. TAF H24, issue times: 00, 06, 12, 18Z.
SERVICES Call out chg may be levied for one or more svcs. Fuel stor by permit only 867-634-2035/2046
FUEL100LL, JA-1
PRICES100LL public: 2.400; current as of 2013-06-09.
S4,5,6
RWY DATARwy 07(069)/25(249) 4843x100 gravel Rwy 07 down 0.34%
RCRCARS
LIGHTING07-(TE LO) P2, 25-(TE LO) P2
COMM
RCOWhitehorse rdo 122.375 (FISE) 126.7 (bcst)
MFaprt rdo 122.1 5NM 4700 ASL (CAR 602.98)
PALEdmonton Ctr 134.65
APRT RDO122.1 (V)
NAV
NDBMA 365 (M) N63 37 40 W135 53 42
CAUTIONFrost heaves 2000' fr thld Rwy 25.
Effective 0901Z 02 March 2017 to 0901Z 27 April 2017